This is the latest recevied weather packets stored in our database for station/object KN6KDD. If no packets are shown the sender has not sent any weather packets the latest 1 day(s).
| Time | Temp. | Humidity | Pressure | Rain* | Wind** | Luminosity | Snow |
|---|---|---|---|---|---|---|---|
| 1778035454 | 13.33° C | 85% | 1355.5 hPa | 0 mm | 0 m/s | 11 W/m² | - |
| 1778035149 | 13.33° C | 84% | 1355.3 hPa | 0 mm | 0.45 m/s, 54° | 14 W/m² | - |
| 1778034847 | 13.33° C | 84% | 1355.3 hPa | 0 mm | 0.89 m/s, 156° | 16 W/m² | - |
| 1778034543 | 13.89° C | 83% | 1355.6 hPa | 0 mm | 0.89 m/s, 347° | 18 W/m² | - |
| 1778034241 | 13.89° C | 84% | 1355.5 hPa | 0 mm | 0.89 m/s, 28° | 19 W/m² | - |
| 1778033939 | 13.89° C | 84% | 1355.3 hPa | 0 mm | 0.45 m/s, 49° | 25 W/m² | - |
| 1778033635 | 13.89° C | 84% | 1355.3 hPa | 0 mm | 1.34 m/s, 131° | 30 W/m² | - |
| 1778033332 | 14.44° C | 83% | 1355.1 hPa | 0 mm | 0.45 m/s, 22° | 30 W/m² | - |
| 1778033030 | 14.44° C | 84% | 1355.5 hPa | 0 mm | 0.89 m/s, 359° | 36 W/m² | - |
| 1778032727 | 14.44° C | 84% | 1355.2 hPa | 0 mm | 0 m/s | 39 W/m² | - |
| 1778032425 | 14.44° C | 82% | 1355.1 hPa | 0 mm | 0.89 m/s, 26° | 48 W/m² | - |
| 1778032121 | 15° C | 81% | 1355.1 hPa | 0 mm | 0 m/s | 54 W/m² | - |
| 1778031818 | 15° C | 81% | 1354.8 hPa | 0 mm | 1.79 m/s, 327° | 60 W/m² | - |
| 1778031515 | 15° C | 81% | 1354.9 hPa | 0 mm | 0.89 m/s, 323° | 66 W/m² | - |
| 1778031213 | 15° C | 81% | 1355.1 hPa | 0 mm | 0 m/s | 81 W/m² | - |
| 1778030909 | 15° C | 80% | 1354.9 hPa | 0 mm | 1.34 m/s, 8° | 91 W/m² | - |
| 1778030606 | 15.56° C | 81% | 1354.9 hPa | 0 mm | 0.89 m/s, 31° | 105 W/m² | - |
| 1778030303 | 15.56° C | 79% | 1354.7 hPa | 0 mm | 0.89 m/s, 327° | 102 W/m² | - |
| 1778030000 | 15° C | 80% | 1354.9 hPa | 0 mm | 1.79 m/s, 317° | 117 W/m² | - |
| 1778029697 | 15° C | 80% | 1354.5 hPa | 0 mm | 1.34 m/s, 341° | 105 W/m² | - |
| 1778029395 | 15° C | 79% | 1354.9 hPa | 0 mm | 1.34 m/s, 299° | 125 W/m² | - |
| 1778029092 | 15.56° C | 81% | 1354.7 hPa | 0 mm | 0 m/s | 142 W/m² | - |
| 1778028788 | 15° C | 81% | 1354.9 hPa | 0 mm | 0.89 m/s, 282° | 147 W/m² | - |
| 1778028484 | 15° C | 81% | 1354.9 hPa | 0 mm | 2.24 m/s, 317° | 142 W/m² | - |
| 1778028182 | 15.56° C | 80% | 1354.9 hPa | 0 mm | 0.89 m/s, 340° | 161 W/m² | - |
* Rain latest hour (hover to see other rain measurements)
** Current wind speed in m/s (hover to see current wind gust speed)